Weather History for Lone Rock, WI

Change the Weather History Date:

Thursday, February 28, 2013

  Actual Average Record
Temperature  
Mean Temperature 32 °F -  
Max Temperature 34 °F 33 °F 51 °F (2004)
Min Temperature 28 °F 18 °F -9 °F (2014)
Degree Days  
Heating Degree Days 33    
Moisture  
Dew Point 23 °F    
Average Humidity 68    
Maximum Humidity 75    
Minimum Humidity 60    
Precipitation  
Precipitation 0.00 in - - ()
Sea Level Pressure  
Sea Level Pressure 30.00 in    
Wind  
Wind Speed 13 mph (North)    
Max Wind Speed 18 mph    
Max Gust Speed 24 mph    
Visibility 10 miles    
Events Snow    
Averages and records for this station are not official NWS values.
T = Trace of Precipitation, MM = Missing Value Source: NWS Daily Summary

Daily Weather History Graph

Daily Weather History Graph

Search for Another Location

Airport:

Trip Planner

Search our weather history database for the weather conditions in past years. The results will help you decide how hot, cold, wet, or windy it might be!

Date:

Astronomy

Feb. 28, 2013 Rise Set
Actual Time 6:38 AM CST 5:48 PM CST
Civil Twilight 6:09 AM CST 6:17 PM CST
Nautical Twilight 5:36 AM CST 6:50 PM CST
Astronomical Twilight 5:03 AM CST 7:23 PM CST
Moon 9:23 PM CST (2/28) 7:41 AM CST (2/28)
Length of Visible Light 12h 08m
Length of Day
11h 10m
Waning Gibbous, 90% of the Moon is Illuminated
Feb 28
Waning Gibbous
Mar 4
Last Quarter
Mar 11
New
Mar 19
First Quarter
Mar 27
Full

Hourly Weather History & Observations

Time (CST) Temp. Windchill Dew Point Humidity Pressure Visibility Wind Dir Wind Speed Gust Speed Precip Events Conditions
12:56 AM 33.1 °F 22.6 °F 26.1 °F 75% 29.85 in 10.0 mi North 16.1 mph 24.2 mph N/A   Overcast
1:56 AM 33.1 °F 21.9 °F 25.0 °F 72% 29.86 in 10.0 mi North 18.4 mph 24.2 mph N/A   Overcast
2:28 AM 33.8 °F 22.8 °F 24.8 °F 70% 29.85 in 10.0 mi North 18.4 mph - N/A   Overcast
2:56 AM 33.1 °F 24.4 °F 25.0 °F 72% 29.87 in 10.0 mi North 11.5 mph - N/A   Overcast
3:11 AM 33.8 °F 25.3 °F 24.8 °F 70% 29.87 in 10.0 mi North 11.5 mph 20.7 mph N/A   Overcast
3:37 AM 33.8 °F 23.5 °F 24.8 °F 70% 29.87 in 10.0 mi North 16.1 mph - N/A   Overcast
3:56 AM 33.1 °F 23.9 °F 25.0 °F 72% 29.88 in 10.0 mi North 12.7 mph - N/A   Overcast
4:56 AM 32.0 °F 22.1 °F 25.0 °F 75% 29.91 in 10.0 mi NNW 13.8 mph 23.0 mph N/A   Overcast
5:56 AM 32.0 °F 22.5 °F 25.0 °F 75% 29.94 in 10.0 mi NNW 12.7 mph - N/A   Overcast
6:56 AM 32.0 °F 24.2 °F 24.1 °F 73% 29.96 in 10.0 mi North 9.2 mph - N/A   Overcast
7:56 AM 33.1 °F 24.4 °F 24.1 °F 70% 29.98 in 10.0 mi North 11.5 mph - N/A   Overcast
8:56 AM 34.0 °F 23.8 °F 25.0 °F 70% 29.99 in 10.0 mi NNW 16.1 mph 21.9 mph N/A   Overcast
9:08 AM 33.8 °F 23.9 °F 24.8 °F 70% 29.98 in 6.0 mi North 15.0 mph - 0.00 in Snow Light Snow
9:56 AM 34.0 °F 24.6 °F 26.1 °F 73% 30.01 in 10.0 mi North 13.8 mph 19.6 mph 0.00 in   Overcast
10:56 AM 34.0 °F 25.0 °F 25.0 °F 70% 30.03 in 10.0 mi NNW 12.7 mph 18.4 mph N/A   Overcast
11:56 AM 34.0 °F 25.5 °F 24.1 °F 67% 30.04 in 10.0 mi North 11.5 mph - N/A   Overcast
12:56 PM 33.1 °F 24.4 °F 24.1 °F 70% 30.04 in 10.0 mi NNW 11.5 mph - N/A   Overcast
1:56 PM 34.0 °F 26.0 °F 23.0 °F 64% 30.04 in 10.0 mi North 10.4 mph - N/A   Overcast
2:56 PM 34.0 °F 27.2 °F 23.0 °F 64% 30.04 in 10.0 mi NNW 8.1 mph - N/A   Overcast
3:56 PM 33.1 °F 25.5 °F 21.9 °F 64% 30.06 in 10.0 mi North 9.2 mph - N/A   Overcast
4:53 PM 33.8 °F 28.6 °F 21.2 °F 60% 30.07 in 10.0 mi North 5.8 mph - N/A   Overcast
5:14 PM 33.8 °F 28.6 °F 21.2 °F 60% 30.07 in 10.0 mi NNW 5.8 mph - N/A   Overcast
5:44 PM 32.0 °F 28.7 °F 23.0 °F 69% 30.08 in 10.0 mi NW 3.5 mph - N/A   Overcast
5:56 PM 32.0 °F 27.5 °F 23.0 °F 69% 30.09 in 10.0 mi NNW 4.6 mph - N/A   Overcast
6:56 PM 32.0 °F 26.4 °F 21.9 °F 66% 30.10 in 10.0 mi North 5.8 mph - N/A   Overcast
7:56 PM 32.0 °F 23.6 °F 19.9 °F 61% 30.12 in 10.0 mi NNE 10.4 mph - N/A   Overcast
8:56 PM 30.9 °F 25.2 °F 21.0 °F 67% 30.12 in 10.0 mi NNE 5.8 mph - N/A   Overcast
9:56 PM 30.9 °F 25.2 °F 19.9 °F 64% 30.12 in 10.0 mi North 5.8 mph - N/A   Overcast
10:56 PM 30.0 °F 24.1 °F 19.0 °F 64% 30.13 in 10.0 mi NNE 5.8 mph - N/A   Overcast
11:56 PM 28.9 °F 19.2 °F 19.9 °F 69% 30.14 in 10.0 mi East 11.5 mph - N/A   Overcast